Location: Hac?musa Deresi
(39.1694°N, 32.2508°E)
Time: 15:12:21
(UTC+00:00)

Cosmos 2369 Rocket - Pass Details

Date: 22 April 2026
Orbit: 829 x 850 km, 71.0° (Epoch: 10 May)

Event Time Altitude Azimuth Distance (km) Brightness Sun altitude
Rises 18:24:00 0° 342° (NNW) 3,378 6.2 -19.7°
Reaches altitude 10° 18:26:32 10° 348° (NNW) 2,441 5.3 -20.1°
Maximum altitude 18:31:57 50° 63° (ENE) 1,054 2.5 -20.9°
Enters shadow 18:33:17 41° 104° (ESE) 1,186 2.5 -21.1°
